When you browse on this site, cookies collect data to enhance your experience and personalize the content and advertising you see.
Visit our Privacy Policy to learn more. By continuing to use the site, you agree to this use of cookies and data.
  • In Hungary
  • List of Countries
  • For 7 days
  • Water Temperature
  • Weather Map
  • News
  • Weather Widgets
  • user-avatar
    Login

    Hourly Weather Bondoukou

    Today, 14 November, Thursday

    Time Temperature Precipitation Wind Pressure Humidity
    00:00 +25°C° 0 mm 1 mps 727 mmHg 88%
    01:00 +25°C° 1.2 mm 1 mps 726 mmHg 90%
    02:00 +25°C° 1.2 mm 1 mps 726 mmHg 92%
    03:00 +25°C° 1.2 mm 1 mps 725 mmHg 94%
    04:00 +24°C° 0 mm 1 mps 726 mmHg 94%
    05:00 +24°C° 0 mm 1 mps 726 mmHg 94%
    06:00 +24°C° 0 mm 1 mps 726 mmHg 94%
    07:00 +26°C° 0 mm 1 mps 727 mmHg 88%
    08:00 +27°C° 0 mm 1 mps 728 mmHg 82%
    09:00 +29°C° 0 mm 1 mps 728 mmHg 77%
    10:00 +30°C° 0.8 mm 1 mps 728 mmHg 71%
    11:00 +31°C° 0.8 mm 1 mps 727 mmHg 66%
    12:00 +32°C° 0.8 mm 1 mps 727 mmHg 61%
    13:00 +32°C° 0.4 mm 2 mps 726 mmHg 61%
    14:00 +32°C° 0.4 mm 2 mps 726 mmHg 61%
    15:00 +32°C° 0.4 mm 2 mps 725 mmHg 61%
    16:00 +30°C° 0.2 mm 2 mps 725 mmHg 69%
    17:00 +28°C° 0.2 mm 1 mps 725 mmHg 77%
    18:00 +27°C° 0.2 mm 1 mps 725 mmHg 84%
    19:00 +26°C° 0 mm 1 mps 726 mmHg 85%
    20:00 +26°C° 0 mm 1 mps 727 mmHg 85%
    21:00 +26°C° 0 mm 1 mps 727 mmHg 85%
    22:00 +25°C° 0 mm 1 mps 727 mmHg 86%
    23:00 +25°C° 0 mm 1 mps 727 mmHg 86%

    Tomorrow, 15 November, Friday

    Time Temperature Precipitation Wind Pressure Humidity
    00:00 +25°C° 0 mm 1 mps 727 mmHg 87%
    01:00 +25°C° 0 mm 1 mps 726 mmHg 88%
    02:00 +24°C° 0 mm 1 mps 726 mmHg 89%
    03:00 +24°C° 0 mm 1 mps 726 mmHg 90%
    04:00 +24°C° 0 mm 1 mps 726 mmHg 91%
    05:00 +24°C° 0 mm 1 mps 726 mmHg 92%
    06:00 +23°C° 0 mm 1 mps 726 mmHg 93%
    07:00 +25°C° 0 mm 1 mps 727 mmHg 88%
    08:00 +27°C° 0 mm 1 mps 727 mmHg 83%
    09:00 +28°C° 0 mm 1 mps 728 mmHg 77%
    10:00 +30°C° 0 mm 1 mps 727 mmHg 71%
    11:00 +31°C° 0 mm 1 mps 727 mmHg 64%
    12:00 +33°C° 0 mm 1 mps 727 mmHg 58%
    13:00 +33°C° 0.5 mm 1 mps 726 mmHg 58%
    14:00 +33°C° 0.5 mm 1 mps 725 mmHg 58%
    15:00 +33°C° 0.5 mm 1 mps 724 mmHg 57%
    16:00 +31°C° 0.1 mm 1 mps 724 mmHg 64%
    17:00 +29°C° 0.1 mm 1 mps 725 mmHg 71%
    18:00 +28°C° 0.1 mm 1 mps 725 mmHg 77%
    19:00 +27°C° 0 mm 1 mps 725 mmHg 77%
    20:00 +27°C° 0 mm 1 mps 726 mmHg 77%
    21:00 +27°C° 0 mm 1 mps 727 mmHg 77%
    22:00 +26°C° 0 mm 1 mps 727 mmHg 77%
    23:00 +26°C° 0 mm 1 mps 726 mmHg 78%

    Day after tomorrow, 16 November, Saturday

    Time Temperature Precipitation Wind Pressure Humidity
    00:00 +24°C° 0 mm 0 mps 726 mmHg 78%
    01:00 +26°C° 0 mm 1 mps 726 mmHg 81%
    02:00 +25°C° 0 mm 1 mps 726 mmHg 84%
    03:00 +25°C° 0 mm 1 mps 725 mmHg 86%
    04:00 +24°C° 0 mm 1 mps 726 mmHg 89%
    05:00 +24°C° 0 mm 1 mps 726 mmHg 91%
    06:00 +24°C° 0 mm 1 mps 726 mmHg 94%
    07:00 +25°C° 0 mm 1 mps 727 mmHg 88%
    08:00 +27°C° 0 mm 1 mps 727 mmHg 82%
    09:00 +29°C° 0 mm 2 mps 728 mmHg 77%
    10:00 +31°C° 0 mm 1 mps 727 mmHg 69%
    11:00 +33°C° 0 mm 1 mps 727 mmHg 61%
    12:00 +33°C° 0 mm 0 mps 726 mmHg 53%
    13:00 +33°C° 0 mm 0 mps 726 mmHg 51%
    14:00 +35°C° 0 mm 1 mps 725 mmHg 48%
    15:00 +34°C° 0 mm 1 mps 724 mmHg 46%
    16:00 +33°C° 0 mm 1 mps 724 mmHg 53%
    17:00 +31°C° 0 mm 1 mps 724 mmHg 61%
    18:00 +29°C° 0 mm 1 mps 724 mmHg 68%
    19:00 +28°C° 0 mm 1 mps 725 mmHg 70%
    20:00 +28°C° 0 mm 1 mps 725 mmHg 71%
    21:00 +27°C° 0 mm 1 mps 726 mmHg 72%
    22:00 +27°C° 0 mm 1 mps 726 mmHg 72%
    23:00 +27°C° 0 mm 1 mps 726 mmHg 72%

    17 November, Sunday

    Time Temperature Precipitation Wind Pressure Humidity
    00:00 +27°C° 0 mm 1 mps 726 mmHg 73%
    01:00 +26°C° 0 mm 1 mps 726 mmHg 77%
    02:00 +25°C° 0 mm 1 mps 726 mmHg 81%
    03:00 +25°C° 0 mm 1 mps 725 mmHg 86%
    04:00 +24°C° 0 mm 1 mps 726 mmHg 89%
    05:00 +24°C° 0 mm 1 mps 726 mmHg 92%
    06:00 +24°C° 0 mm 1 mps 726 mmHg 96%
    07:00 +25°C° 0 mm 1 mps 727 mmHg 90%
    08:00 +26°C° 0 mm 2 mps 727 mmHg 85%
    09:00 +28°C° 0 mm 2 mps 728 mmHg 79%
    10:00 +30°C° 0 mm 1 mps 727 mmHg 72%
    11:00 +31°C° 0 mm 1 mps 727 mmHg 65%
    12:00 +33°C° 0 mm 1 mps 726 mmHg 58%
    13:00 +33°C° 0 mm 1 mps 726 mmHg 55%
    14:00 +34°C° 0 mm 1 mps 725 mmHg 52%
    15:00 +32°C° 0 mm 0 mps 725 mmHg 49%
    16:00 +32°C° 0 mm 1 mps 725 mmHg 57%
    17:00 +30°C° 0 mm 1 mps 725 mmHg 64%
    18:00 +28°C° 0 mm 1 mps 725 mmHg 72%
    19:00 +28°C° 0 mm 1 mps 726 mmHg 74%
    20:00 +28°C° 0 mm 1 mps 726 mmHg 75%
    21:00 +27°C° 0 mm 1 mps 727 mmHg 77%
    22:00 +26°C° 0.1 mm 1 mps 727 mmHg 80%
    23:00 +26°C° 0.1 mm 1 mps 727 mmHg 83%

    18 November, Monday

    Time Temperature Precipitation Wind Pressure Humidity
    00:00 +25°C° 0.1 mm 1 mps 727 mmHg 86%
    01:00 +25°C° 0 mm 1 mps 726 mmHg 87%
    02:00 +25°C° 0 mm 1 mps 726 mmHg 89%
    03:00 +24°C° 0 mm 1 mps 726 mmHg 90%
    04:00 +24°C° 0 mm 1 mps 726 mmHg 92%
    05:00 +24°C° 0 mm 1 mps 726 mmHg 93%
    06:00 +23°C° 0 mm 1 mps 726 mmHg 95%
    07:00 +25°C° 0 mm 1 mps 727 mmHg 88%
    08:00 +27°C° 0 mm 1 mps 727 mmHg 81%
    09:00 +29°C° 0 mm 1 mps 728 mmHg 74%
    10:00 +31°C° 0 mm 1 mps 727 mmHg 66%
    11:00 +33°C° 0 mm 1 mps 727 mmHg 58%
    12:00 +35°C° 0 mm 1 mps 726 mmHg 50%
    13:00 +35°C° 0 mm 1 mps 726 mmHg 46%
    14:00 +35°C° 0 mm 1 mps 725 mmHg 43%
    15:00 +36°C° 0 mm 1 mps 725 mmHg 39%
    16:00 +33°C° 0 mm 1 mps 725 mmHg 48%
    17:00 +31°C° 0 mm 1 mps 725 mmHg 57%
    18:00 +29°C° 0 mm 1 mps 725 mmHg 65%
    19:00 +29°C° 0 mm 1 mps 725 mmHg 68%
    20:00 +28°C° 0 mm 1 mps 726 mmHg 70%
    21:00 +28°C° 0 mm 1 mps 726 mmHg 72%
    22:00 +27°C° 0 mm 1 mps 726 mmHg 73%
    23:00 +27°C° 0 mm 1 mps 726 mmHg 73%

    19 November, Tuesday

    Time Temperature Precipitation Wind Pressure Humidity
    00:00 +26°C° 0 mm 1 mps 726 mmHg 74%
    01:00 +26°C° 0 mm 1 mps 726 mmHg 77%
    02:00 +25°C° 0 mm 1 mps 726 mmHg 80%
    03:00 +25°C° 0 mm 2 mps 726 mmHg 83%
    04:00 +24°C° 0 mm 1 mps 726 mmHg 87%
    05:00 +24°C° 0 mm 1 mps 726 mmHg 91%
    06:00 +23°C° 0 mm 1 mps 726 mmHg 94%
    07:00 +25°C° 0 mm 1 mps 727 mmHg 89%
    08:00 +27°C° 0 mm 1 mps 727 mmHg 83%
    09:00 +28°C° 0 mm 1 mps 728 mmHg 78%
    10:00 +30°C° 0 mm 1 mps 727 mmHg 71%
    11:00 +32°C° 0 mm 1 mps 727 mmHg 64%
    12:00 +33°C° 0 mm 1 mps 727 mmHg 57%
    13:00 +33°C° 0.1 mm 1 mps 726 mmHg 57%
    14:00 +34°C° 0.1 mm 2 mps 725 mmHg 57%
    15:00 +34°C° 0.1 mm 2 mps 725 mmHg 56%
    16:00 +31°C° 0.1 mm 2 mps 725 mmHg 64%
    17:00 +30°C° 0.1 mm 2 mps 725 mmHg 71%
    18:00 +28°C° 0.1 mm 1 mps 725 mmHg 79%
    19:00 +27°C° 0 mm 1 mps 726 mmHg 81%
    20:00 +27°C° 0 mm 2 mps 726 mmHg 84%
    21:00 +26°C° 0 mm 2 mps 727 mmHg 86%
    22:00 +26°C° 0 mm 2 mps 727 mmHg 88%
    23:00 +25°C° 0 mm 1 mps 727 mmHg 89%
    Show more